{"data":{"norad_id":49424,"epoch":"2026-09-20T01:05:32.196192Z","epoch_age_seconds":43489,"freshness":"FRESH","line1":"1 49424U 21104S   26263.04551153  .00000061  00000+0  12651-4 0  9999","line2":"2 49424  53.1610  64.1189 0001126  83.0988 277.0143 15.35393213268135","mean_motion":15.35393213,"eccentricity":0.0001126,"inclination_deg":53.161,"raan_deg":64.1189,"arg_perigee_deg":83.0988,"mean_anomaly_deg":277.0143,"bstar":1.2651e-5,"rev_number":26813,"period_min":93.787049975712,"perigee_km":458.98284692664,"apogee_km":460.52273970809,"semimajor_km":6837.8897933174,"source":"CELESTRAK","updated_at":"2026-09-20T09:00:39.258059Z"}}